N2DJ Weather Reports


Display with metric or nautical units.
time (UTC)temp
F
wind
direction
speed
MPH
gust
MPH
rain 1hr
in
rain 24hr
in
rain mn
in
humidity
%
barometer
mb
20200401093003 34 25 2.0 5.0 0.00 0.00 0.00 78 1013.5
20200401091506 35 26 2.0 4.0 0.00 0.00 0.00 79 1013.5
20200401090142 35 30 1.0 3.0 0.00 0.00 0.00 78 1013.5
20200401084655 35 30 1.0 4.0 0.00 0.00 0.00 78 1013.6
20200401083232 35 34 1.0 3.0 0.00 0.00 0.00 78 1013.6
20200401081745 35 38 2.0 4.0 0.00 0.00 0.00 77 1013.6
20200401080251 35 55 1.0 3.0 0.00 0.00 0.00 76 1013.8
20200401074735 36 61 3.0 5.0 0.00 0.00 0.00 74 1013.7
20200401073142 36 55 3.0 5.0 0.00 0.00 0.00 74 1013.9
20200401071723 37 80 2.0 5.0 0.00 0.00 0.00 74 1013.8
20200401070132 37 77 3.0 7.0 0.00 0.00 0.00 75 1013.9
20200401064703 37 86 3.0 10.0 0.00 0.00 0.00 75 1014.0
20200401063132 37 44 4.0 8.0 0.00 0.00 0.00 76 1014.1
20200401061619 38 88 3.0 6.0 0.00 0.00 0.00 77 1014.2
20200401060136 38 64 4.0 7.0 0.00 0.00 0.00 76 1014.1
20200401054616 39 42 3.0 9.0 0.00 0.00 0.00 77 1014.3
20200401053034 39 111 3.0 8.0 0.00 0.00 0.00 76 1014.2
20200401051639 39 69 5.0 10.0 0.00 0.00 0.00 77 1014.4
20200401050055 40 100 3.0 8.0 0.00 0.00 0.00 78 1014.5
20200401044545 40 69 3.0 11.0 0.00 0.00 0.00 79 1014.8
20200401043044 40 60 5.0 10.0 0.00 0.00 0.00 80 1014.7
20200401041534 40 68 4.0 12.0 0.00 0.00 0.00 81 1014.9
20200401040039 40 46 4.0 14.0 0.00 0.00 0.00 82 1014.8
20200401034557 40 39 6.0 15.0 0.00 0.00 0.00 83 1014.8
20200401033055 40 38 5.0 12.0 0.00 0.00 0.00 85 1015.1
20200401031524 40 68 3.0 9.0 0.00 0.00 0.00 86 1015.3
20200401030020 40 70 4.0 13.0 0.00 0.00 0.00 86 1015.3
20200401024543 40 78 5.0 13.0 0.00 0.00 0.00 87 1015.4
20200401023035 40 67 5.0 10.0 0.00 0.00 0.00 87 1015.5
20200401021516 41 58 5.0 11.0 0.00 0.00 0.00 87 1015.6
20200401020013 40 67 6.0 13.0 0.00 0.00 0.00 87 1015.6
20200401014517 40 74 6.0 13.0 0.00 0.03 0.00 87 1015.8
20200401013020 40 57 7.0 12.0 0.00 0.03 0.00 88 1015.6
20200401011524 40 80 4.0 11.0 0.00 0.03 0.00 89 1015.8
20200401010041 40 76 9.0 13.0 0.00 0.03 0.00 89 1015.8
20200401004547 40 57 6.0 14.0 0.00 0.03 0.00 89 1015.9
20200401003013 40 74 5.0 10.0 0.00 0.03 0.00 90 1015.9
20200401001510 40 80 7.0 13.0 0.00 0.03 0.00 90 1016.0
20200401000037 40 59 5.0 12.0 0.00 0.03 0.00 90 1015.7
20200331234509 40 78 7.0 14.0 0.00 0.03 0.00 90 1015.7
20200331233051 40 69 4.0 13.0 0.00 0.03 0.00 90 1015.7
20200331231505 40 109 7.0 12.0 0.00 0.03 0.00 90 1015.6
20200331230009 41 65 4.0 13.0 0.00 0.03 0.00 90 1015.4
20200331224504 41 69 9.0 17.0 0.00 0.04 0.00 89 1015.4
20200331223002 41 88 8.0 14.0 0.00 0.04 0.00 89 1015.4
20200331221709 41 63 5.0 9.0 0.00 0.04 0.00 89 1015.4
20200331220116 41 80 6.0 17.0 0.00 0.04 0.00 89 1015.3
20200331214622 42 74 5.0 14.0 0.00 0.04 0.00 89 1015.2
20200331213148 42 81 5.0 17.0 0.00 0.04 0.00 89 1015.0
20200331211710 43 69 8.0 13.0 0.00 0.04 0.00 89 1014.8
20200331210228 42 86 8.0 14.0 0.00 0.04 0.00 89 1014.7
20200331204622 43 62 5.0 13.0 0.00 0.05 0.00 89 1014.7
20200331203155 43 51 6.0 15.0 0.00 0.05 0.00 89 1014.6
20200331201614 44 40 7.0 14.0 0.00 0.05 0.00 87 1014.7
20200331200140 45 43 6.0 13.0 0.00 0.05 0.00 86 1014.9
20200331194615 45 30 7.0 12.0 0.00 0.05 0.00 83 1015.0
20200331193111 46 77 8.0 13.0 0.00 0.05 0.00 82 1015.1
20200331191637 45 57 6.0 11.0 0.00 0.05 0.00 84 1015.4
20200331190151 45 59 4.0 9.0 0.00 0.05 0.00 84 1015.7
20200331183124 45 96 6.0 11.0 0.00 0.05 0.00 85 1015.9
20200331181556 44 71 6.0 10.0 0.00 0.05 0.00 86 1016.1
20200331180141 44 52 4.0 9.0 0.00 0.05 0.00 88 1016.4
20200331174559 44 64 5.0 10.0 0.00 0.05 0.00 88 1016.4
20200331173101 44 69 7.0 12.0 0.00 0.05 0.00 85 1016.4
20200331171602 45 76 6.0 9.0 0.00 0.05 0.00 86 1016.4
20200331170100 44 76 3.0 9.0 0.00 0.05 0.00 85 1016.3
20200331164621 43 80 6.0 12.0 0.00 0.05 0.00 83 1016.2
20200331163054 44 93 5.0 9.0 0.00 0.05 0.00 82 1016.5
20200331161558 43 88 1.0 6.0 0.00 0.05 0.00 85 1016.4
20200331160045 43 70 5.0 9.0 0.00 0.05 0.00 86 1016.5
20200331154532 43 150 3.0 10.0 0.00 0.06 0.00 87 1016.4
20200331153101 42 112 4.0 8.0 0.00 0.06 0.00 91 1016.5
20200331151528 41 94 4.0 7.0 0.00 0.06 0.00 93 1016.6
20200331150047 41 105 6.0 9.0 0.00 0.06 0.00 94 1016.7
20200331144600 41 98 3.0 6.0 0.00 0.08 0.00 95 1016.8
20200331143028 40 81 3.0 9.0 0.00 0.08 0.00 94 1016.8
20200331141524 40 90 2.0 6.0 0.00 0.08 0.00 95 1017.0
20200331140015 40 79 4.0 6.0 0.00 0.08 0.00 95 1016.9
20200331134520 40 40 4.0 6.0 0.00 0.09 0.00 95 1016.7
20200331133018 40 81 4.0 6.0 0.00 0.09 0.00 95 1016.7
20200331131511 40 56 3.0 4.0 0.00 0.09 0.00 95 1016.8
20200331130010 40 28 1.0 2.0 0.00 0.09 0.00 95 1016.9
20200331124510 40 28 1.0 5.0 0.00 0.09 0.00 95 1016.9
20200331123008 40 343 1.0 4.0 0.00 0.09 0.00 95 1016.8
20200331121513 40 16 2.0 4.0 0.00 0.09 0.00 95 1016.9
20200331120020 40 36 1.0 5.0 0.00 0.09 0.00 95 1016.9
20200331114518 40 319 1.0 3.0 0.00 0.09 0.00 95 1016.9
20200331113006 40 308 0.0 2.0 0.00 0.09 0.00 95 1016.8
20200331111743 39 308 0.0 3.0 0.00 0.09 0.00 95 1016.9
20200331110134 39 308 0.0 3.0 0.00 0.09 0.00 95 1016.8
20200331104826 39 290 1.0 2.0 0.00 0.09 0.00 95 1016.6
20200331103211 39 290 0.0 0.0 0.00 0.09 0.00 95 1016.4
20200331101611 39 290 0.0 0.0 0.00 0.09 0.00 95 1016.4
20200331100119 39 290 0.0 3.0 0.00 0.09 0.00 95 1016.2
20200331094723 39 290 1.0 3.0 0.00 0.09 0.00 95 1016.2